Location: Fort Wayne
(41.1310°N, 85.1290°W)
Time: 14:12:24
(UTC-04:00)

Tiros 1 despin weight - Visible Passes

Search period start: 01 August 2015 00:00
Search period end: 11 August 2015 00:00
Orbit: 597 x 647 km, 48.2° (Epoch: 01 August)

Date Brightness Start Highest point End Pass type
(mag) Time Alt. Az. Time Alt. Az. Time Alt. Az.
01 Aug ? 01:13:56 10° WNW 01:18:02 39° N 01:18:02 39° N visible
01 Aug ? 22:07:19 10° W 22:11:49 52° NNW 22:16:23 10° ENE visible
01 Aug ? 23:49:54 10° WNW 23:54:08 34° N 23:57:17 16° ENE visible
02 Aug ? 01:31:52 10° WNW 01:34:22 29° NW 01:34:22 29° NW visible
02 Aug ? 22:25:36 10° W 22:29:56 39° NNW 22:34:19 10° ENE visible
03 Aug ? 00:08:01 10° WNW 00:12:20 36° N 00:13:44 30° NE visible
03 Aug ? 01:49:45 10° WNW 01:50:49 17° WNW 01:50:49 17° WNW visible
03 Aug ? 22:43:53 10° WNW 22:48:06 34° N 22:52:23 10° ENE visible
04 Aug ? 00:26:01 10° WNW 00:30:15 45° N 00:30:15 45° N visible
04 Aug ? 21:19:33 10° W 21:23:56 44° NNW 21:28:23 10° ENE visible
04 Aug ? 23:02:05 10° WNW 23:06:19 34° N 23:09:43 15° ENE visible
05 Aug ? 00:43:54 10° WNW 00:46:49 37° NW 00:46:49 37° NW visible
05 Aug ? 21:37:51 10° WNW 21:42:05 36° N 21:46:22 10° ENE visible
05 Aug ? 23:20:07 10° WNW 23:24:29 40° NNE 23:26:19 28° ENE visible
06 Aug ? 01:01:47 10° WNW 01:03:26 22° WNW 01:03:26 22° WNW visible
06 Aug ? 21:56:06 10° WNW 22:00:16 33° N 22:04:31 10° ENE visible
06 Aug ? 23:38:03 10° WNW 23:42:35 53° NNE 23:42:58 51° NE visible
07 Aug ? 01:19:48 10° WNW 01:20:04 11° WNW 01:20:04 11° WNW visible
07 Aug ? 22:14:13 10° WNW 22:18:28 36° N 22:22:32 11° ENE visible
07 Aug ? 23:55:55 10° WNW 23:59:38 57° NW 23:59:38 57° NW visible
08 Aug ? 22:32:10 10° WNW 22:36:36 45° NNE 22:39:14 22° ENE visible
09 Aug ? 00:13:51 10° WNW 00:16:21 31° WNW 00:16:21 31° WNW visible
09 Aug ? 22:50:04 10° WNW 22:54:38 64° NNE 22:55:59 43° E visible
10 Aug ? 00:32:00 10° WNW 00:33:06 16° W 00:33:06 16° W visible
10 Aug ? 21:26:17 10° WNW 21:30:35 39° NNE 21:34:58 10° E visible
10 Aug ? 23:07:56 10° WNW 23:12:33 79° SSW 23:12:46 77° S visible
